EWG47 LIPZ-EDDK

Flight info

Callsign EWG47
Flight time 1h 11m
Altitude 34000
Route ROKIB DCT UNIMI L12 MOGTI DCT KPT L608 KOVAN T844 UMDAS/N0401F240 T844 ASKIK T840 GULKO GULKO1G
Aircraft A321/M-SDE3FGHIRWY/LB1

Departure

Time 2026-04-21 21:04
Airport Venice Marco Polo Airport (LIPZ)

Arrival

Time 2026-04-21 22:16
Airport Cologne Bonn Airport (EDDK)
Time Latitude Longitude Altitude Speed Heading
2026-04-21 20:36 45.50644 12.34125 13 ft 0 kts 225°
2026-04-21 20:52 45.50647 12.34128 13 ft 3 kts 225°
2026-04-21 20:52 45.50666 12.34154 4 ft 4 kts 221°
2026-04-21 20:53 45.50687 12.34178 13 ft 4 kts 213°
2026-04-21 20:53 45.50710 12.34196 16 ft 4 kts 191°
2026-04-21 20:53 45.50730 12.34194 15 ft 2 kts 134°
2026-04-21 20:53 45.50731 12.34193 15 ft 0 kts 134°
2026-04-21 20:57 45.50729 12.34197 16 ft 1 kts 134°
2026-04-21 20:58 45.50724 12.34204 15 ft 1 kts 134°
2026-04-21 20:58 45.50712 12.34222 14 ft 5 kts 134°
2026-04-21 20:58 45.50685 12.34262 13 ft 6 kts 133°
2026-04-21 20:58 45.50655 12.34310 14 ft 7 kts 131°
2026-04-21 20:59 45.50602 12.34333 14 ft 10 kts 175°
2026-04-21 20:59 45.50533 12.34342 17 ft 10 kts 175°
2026-04-21 20:59 45.50464 12.34348 18 ft 10 kts 178°
2026-04-21 20:59 45.50400 12.34351 20 ft 9 kts 179°
2026-04-21 21:00 45.50334 12.34353 20 ft 10 kts 179°
2026-04-21 21:00 45.50252 12.34356 17 ft 14 kts 176°
2026-04-21 21:00 45.50140 12.34349 14 ft 18 kts 201°
2026-04-21 21:00 45.50029 12.34218 12 ft 23 kts 222°
2026-04-21 21:01 45.49905 12.34061 11 ft 24 kts 221°
2026-04-21 21:01 45.49779 12.33900 11 ft 25 kts 222°
2026-04-21 21:01 45.49659 12.33745 15 ft 18 kts 222°
2026-04-21 21:01 45.49592 12.33659 15 ft 13 kts 222°
2026-04-21 21:02 45.49524 12.33596 16 ft 8 kts 173°
2026-04-21 21:02 45.49505 12.33617 16 ft 0 kts 134°
2026-04-21 21:02 45.49493 12.33635 16 ft 7 kts 133°
2026-04-21 21:03 45.49449 12.33700 15 ft 12 kts 133°
2026-04-21 21:03 45.49444 12.33814 15 ft 14 kts 49°
2026-04-21 21:03 45.49548 12.33950 13 ft 42 kts 42°
2026-04-21 21:03 45.49968 12.34495 12 ft 118 kts 43°
2026-04-21 21:04 45.50732 12.35481 32 ft 174 kts 43°
2026-04-21 21:04 45.51632 12.36663 692 ft 176 kts 46°
2026-04-21 21:04 45.52520 12.37876 1405 ft 180 kts 48°
2026-04-21 21:04 45.53357 12.39304 1708 ft 198 kts 69°
2026-04-21 21:05 45.53606 12.41233 2205 ft 201 kts 96°
2026-04-21 21:05 45.53400 12.43205 2851 ft 201 kts 101°
2026-04-21 21:05 45.53260 12.44510 3287 ft 202 kts 101°
2026-04-21 21:05 45.53043 12.46500 3847 ft 208 kts 103°
2026-04-21 21:06 45.52456 12.48480 4053 ft 230 kts 129°
2026-04-21 21:06 45.51116 12.49877 4388 ft 252 kts 160°
2026-04-21 21:06 45.49344 12.50125 4997 ft 262 kts 189°
2026-04-21 21:06 45.47633 12.49208 5726 ft 268 kts 214°
2026-04-21 21:07 45.46357 12.47265 6497 ft 272 kts 242°
2026-04-21 21:07 45.45824 12.44694 7210 ft 274 kts 269°
2026-04-21 21:07 45.46157 12.42032 7940 ft 276 kts 296°
2026-04-21 21:07 45.47304 12.39864 8711 ft 276 kts 322°
2026-04-21 21:08 45.48914 12.38378 9535 ft 276 kts 329°
2026-04-21 21:08 45.50568 12.36951 10239 ft 283 kts 329°
2026-04-21 21:08 45.52319 12.35441 10427 ft 305 kts 329°
2026-04-21 21:08 45.54204 12.33811 10560 ft 328 kts 329°
2026-04-21 21:09 45.56208 12.32073 10779 ft 345 kts 328°
2026-04-21 21:09 45.58273 12.30259 11342 ft 350 kts 327°
2026-04-21 21:09 45.60329 12.28369 12015 ft 353 kts 326°
2026-04-21 21:09 45.62379 12.26426 12691 ft 355 kts 325°
2026-04-21 21:10 45.64434 12.24456 13368 ft 356 kts 325°
2026-04-21 21:10 45.66499 12.22476 14013 ft 358 kts 325°
2026-04-21 21:10 45.68578 12.20493 14580 ft 361 kts 324°
2026-04-21 21:10 45.70682 12.18496 15163 ft 364 kts 324°
2026-04-21 21:11 45.72802 12.16495 15804 ft 364 kts 324°
2026-04-21 21:11 45.74917 12.14496 16459 ft 365 kts 324°
2026-04-21 21:11 45.77037 12.12495 17068 ft 366 kts 324°
2026-04-21 21:11 45.79163 12.10487 17663 ft 367 kts 323°
2026-04-21 21:12 45.81294 12.08462 18232 ft 368 kts 323°
2026-04-21 21:12 45.83434 12.06425 18732 ft 370 kts 323°
2026-04-21 21:12 45.85581 12.04382 19215 ft 371 kts 323°
2026-04-21 21:12 45.87738 12.02328 19712 ft 373 kts 323°
2026-04-21 21:13 45.89906 12.00263 20206 ft 375 kts 322°
2026-04-21 21:13 45.92082 11.98190 20697 ft 376 kts 322°
2026-04-21 21:13 45.94270 11.96104 21217 ft 378 kts 322°
2026-04-21 21:13 45.96473 11.94006 21666 ft 382 kts 323°
2026-04-21 21:14 45.98694 11.91885 22118 ft 383 kts 322°
2026-04-21 21:14 46.00920 11.89754 22624 ft 385 kts 322°
2026-04-21 21:14 46.03151 11.87616 23102 ft 386 kts 322°
2026-04-21 21:14 46.05388 11.85471 23565 ft 386 kts 322°
2026-04-21 21:15 46.07630 11.83317 23921 ft 388 kts 321°
2026-04-21 21:15 46.09879 11.81150 24285 ft 390 kts 322°
2026-04-21 21:15 46.12134 11.78975 24699 ft 391 kts 321°
2026-04-21 21:15 46.14397 11.76792 25120 ft 392 kts 321°
2026-04-21 21:16 46.16679 11.74590 25493 ft 394 kts 321°
2026-04-21 21:16 46.18958 11.72391 25825 ft 395 kts 321°
2026-04-21 21:16 46.21245 11.70180 26224 ft 396 kts 321°
2026-04-21 21:16 46.23530 11.67970 26595 ft 396 kts 321°
2026-04-21 21:17 46.25823 11.65753 26893 ft 397 kts 321°
2026-04-21 21:17 46.28123 11.63526 27203 ft 398 kts 321°
2026-04-21 21:17 46.30395 11.61322 27533 ft 399 kts 321°
2026-04-21 21:17 46.32702 11.59076 27884 ft 398 kts 321°
2026-04-21 21:18 46.35009 11.56877 28351 ft 396 kts 322°
2026-04-21 21:18 46.37358 11.54794 28773 ft 396 kts 323°
2026-04-21 21:18 46.39742 11.52789 29268 ft 396 kts 324°
2026-04-21 21:18 46.42142 11.50813 29583 ft 398 kts 324°
2026-04-21 21:19 46.44549 11.48829 29957 ft 397 kts 324°
2026-04-21 21:19 46.46944 11.46839 30286 ft 396 kts 324°
2026-04-21 21:19 46.49326 11.44832 30609 ft 395 kts 323°
2026-04-21 21:19 46.51697 11.42818 30987 ft 395 kts 323°
2026-04-21 21:20 46.54063 11.40793 31312 ft 394 kts 323°
2026-04-21 21:20 46.56426 11.38766 31619 ft 394 kts 323°
2026-04-21 21:20 46.58786 11.36742 31867 ft 392 kts 323°
2026-04-21 21:20 46.61132 11.34732 32065 ft 392 kts 323°
2026-04-21 21:21 46.63486 11.32720 32315 ft 394 kts 324°
2026-04-21 21:21 46.65863 11.30688 32509 ft 398 kts 324°
2026-04-21 21:21 46.68248 11.28647 32786 ft 398 kts 324°
2026-04-21 21:21 46.70632 11.26599 33080 ft 398 kts 324°
2026-04-21 21:22 46.73018 11.24551 33416 ft 397 kts 324°
2026-04-21 21:22 46.75397 11.22504 33741 ft 397 kts 323°
2026-04-21 21:22 46.77772 11.20455 34035 ft 396 kts 324°
2026-04-21 21:22 46.80145 11.18405 34255 ft 397 kts 324°
2026-04-21 21:23 46.82522 11.16349 34442 ft 397 kts 324°
2026-04-21 21:23 46.84904 11.14286 34648 ft 400 kts 324°
2026-04-21 21:23 46.87283 11.12222 34764 ft 404 kts 325°
2026-04-21 21:23 46.89710 11.10117 34900 ft 407 kts 325°
2026-04-21 21:24 46.92151 11.07999 35088 ft 408 kts 325°
2026-04-21 21:24 46.94593 11.05881 35315 ft 408 kts 325°
2026-04-21 21:24 46.97035 11.03758 35516 ft 409 kts 325°
2026-04-21 21:24 46.99481 11.01628 35735 ft 410 kts 325°
2026-04-21 21:25 47.01934 10.99487 35942 ft 410 kts 325°
2026-04-21 21:25 47.04381 10.97348 36083 ft 410 kts 325°
2026-04-21 21:25 47.06834 10.95199 36241 ft 410 kts 325°
2026-04-21 21:25 47.09280 10.93051 36391 ft 411 kts 326°
2026-04-21 21:26 47.11738 10.90896 36539 ft 412 kts 326°
2026-04-21 21:26 47.14205 10.88731 36664 ft 414 kts 326°
2026-04-21 21:26 47.16677 10.86561 36793 ft 415 kts 326°
2026-04-21 21:26 47.19160 10.84382 36954 ft 416 kts 326°
2026-04-21 21:27 47.24158 10.79976 37035 ft 421 kts 326°
2026-04-21 21:27 47.29178 10.75535 37045 ft 421 kts 326°
2026-04-21 21:28 47.34208 10.71085 37051 ft 422 kts 326°
2026-04-21 21:29 47.41755 10.64390 37067 ft 422 kts 326°
2026-04-21 21:29 47.46793 10.59910 37075 ft 422 kts 326°
2026-04-21 21:30 47.51823 10.55423 37091 ft 423 kts 326°
2026-04-21 21:30 47.56859 10.50917 37107 ft 424 kts 326°
2026-04-21 21:31 47.61906 10.46399 37103 ft 424 kts 326°
2026-04-21 21:31 47.66953 10.41869 37113 ft 424 kts 326°
2026-04-21 21:32 47.72002 10.37320 37115 ft 424 kts 326°
2026-04-21 21:32 47.76809 10.32294 37136 ft 422 kts 319°
2026-04-21 21:33 47.81354 10.26749 37133 ft 423 kts 319°
2026-04-21 21:33 47.85910 10.21197 37129 ft 423 kts 319°
2026-04-21 21:34 47.90468 10.15629 37121 ft 423 kts 319°
2026-04-21 21:34 47.95020 10.10051 37127 ft 423 kts 319°
2026-04-21 21:35 47.99967 10.05424 37149 ft 426 kts 333°
2026-04-21 21:35 48.05356 10.01686 37138 ft 427 kts 333°
2026-04-21 21:36 48.10759 9.97950 37152 ft 428 kts 333°
2026-04-21 21:36 48.16160 9.94190 37155 ft 428 kts 333°
2026-04-21 21:37 48.21562 9.90403 37156 ft 429 kts 333°
2026-04-21 21:37 48.26966 9.86591 37150 ft 429 kts 333°
2026-04-21 21:38 48.32373 9.82779 37154 ft 429 kts 333°
2026-04-21 21:38 48.37782 9.78965 37156 ft 430 kts 333°
2026-04-21 21:39 48.43188 9.75125 37164 ft 430 kts 332°
2026-04-21 21:39 48.48587 9.71232 37163 ft 430 kts 332°
2026-04-21 21:40 48.53977 9.67322 37172 ft 430 kts 332°
2026-04-21 21:40 48.59368 9.63411 37168 ft 430 kts 332°
2026-04-21 21:41 48.64767 9.59497 37166 ft 430 kts 332°
2026-04-21 21:41 48.70153 9.55575 37171 ft 430 kts 332°
2026-04-21 21:42 48.75545 9.51657 37169 ft 430 kts 332°
2026-04-21 21:42 48.80939 9.47709 37176 ft 430 kts 332°
2026-04-21 21:43 48.86332 9.43754 37188 ft 430 kts 332°
2026-04-21 21:43 48.91725 9.39796 37188 ft 430 kts 332°
2026-04-21 21:44 48.97123 9.35819 37184 ft 431 kts 333°
2026-04-21 21:44 49.02528 9.31834 37181 ft 432 kts 333°
2026-04-21 21:45 49.07910 9.27854 37170 ft 432 kts 333°
2026-04-21 21:45 49.13320 9.23840 37182 ft 433 kts 332°
2026-04-21 21:46 49.18739 9.19801 37192 ft 433 kts 333°
2026-04-21 21:46 49.24157 9.15755 37191 ft 434 kts 333°
2026-04-21 21:47 49.29581 9.11706 37193 ft 434 kts 333°
2026-04-21 21:47 49.34135 9.08303 37196 ft 434 kts 333°
2026-04-21 21:48 49.39568 9.04235 37214 ft 435 kts 333°
2026-04-21 21:48 49.45001 9.00153 37214 ft 435 kts 333°
2026-04-21 21:49 49.50421 8.96011 37196 ft 435 kts 333°
2026-04-21 21:49 49.55830 8.91833 37211 ft 435 kts 333°
2026-04-21 21:50 49.61246 8.87657 37219 ft 435 kts 333°
2026-04-21 21:50 49.66629 8.83507 37218 ft 435 kts 333°
2026-04-21 21:51 49.72039 8.79322 36812 ft 433 kts 333°
2026-04-21 21:51 49.74728 8.77234 36148 ft 432 kts 333°
2026-04-21 21:51 49.77420 8.75144 35490 ft 432 kts 333°
2026-04-21 21:51 49.80105 8.73058 34833 ft 431 kts 333°
2026-04-21 21:52 49.82791 8.70972 34172 ft 431 kts 333°
2026-04-21 21:52 49.85469 8.68890 33365 ft 431 kts 333°
2026-04-21 21:52 49.88148 8.66801 32507 ft 432 kts 333°
2026-04-21 21:52 49.90843 8.64690 31570 ft 436 kts 333°
2026-04-21 21:53 49.93558 8.62563 30683 ft 438 kts 333°
2026-04-21 21:53 49.96286 8.60426 29815 ft 439 kts 333°
2026-04-21 21:53 49.99022 8.58282 29017 ft 442 kts 333°
2026-04-21 21:53 50.01768 8.56123 28222 ft 444 kts 333°
2026-04-21 21:54 50.04541 8.53959 27463 ft 445 kts 335°
2026-04-21 21:54 50.07424 8.52202 26734 ft 446 kts 341°
2026-04-21 21:54 50.10366 8.50624 25997 ft 448 kts 341°
2026-04-21 21:54 50.13203 8.49103 25309 ft 460 kts 344°
2026-04-21 21:55 50.16248 8.47465 24624 ft 463 kts 345°
2026-04-21 21:55 50.19327 8.45797 24008 ft 461 kts 345°
2026-04-21 21:55 50.22342 8.44166 23334 ft 457 kts 344°
2026-04-21 21:55 50.25332 8.42548 22637 ft 452 kts 344°
2026-04-21 21:56 50.28273 8.40857 21959 ft 450 kts 340°
2026-04-21 21:56 50.31042 8.38589 21303 ft 448 kts 331°
2026-04-21 21:56 50.33628 8.36017 20660 ft 444 kts 330°
2026-04-21 21:56 50.36224 8.33424 19998 ft 441 kts 330°
2026-04-21 21:57 50.38794 8.30849 19368 ft 437 kts 330°
2026-04-21 21:57 50.41346 8.28298 18781 ft 433 kts 330°
2026-04-21 21:57 50.43876 8.25766 18115 ft 429 kts 330°
2026-04-21 21:57 50.46380 8.23261 17426 ft 424 kts 330°
2026-04-21 21:58 50.48857 8.20779 16756 ft 420 kts 330°
2026-04-21 21:58 50.51302 8.18321 16105 ft 415 kts 330°
2026-04-21 21:58 50.53713 8.15894 15473 ft 408 kts 330°
2026-04-21 21:58 50.56069 8.13514 14966 ft 397 kts 330°
2026-04-21 21:59 50.58359 8.11197 14519 ft 385 kts 330°
2026-04-21 21:59 50.60577 8.08949 14115 ft 373 kts 330°
2026-04-21 21:59 50.62733 8.06765 13643 ft 364 kts 330°
2026-04-21 21:59 50.64852 8.04623 13210 ft 360 kts 330°
2026-04-21 22:00 50.66939 8.02514 12776 ft 351 kts 330°
2026-04-21 22:00 50.68961 8.00460 12342 ft 342 kts 330°
2026-04-21 22:00 50.70939 7.98447 11942 ft 334 kts 330°
2026-04-21 22:00 50.72869 7.96483 11522 ft 326 kts 330°
2026-04-21 22:01 50.74659 7.94363 11093 ft 318 kts 321°
2026-04-21 22:01 50.76155 7.91889 10611 ft 313 kts 311°
2026-04-21 22:01 50.77380 7.89100 10379 ft 305 kts 306°
2026-04-21 22:01 50.78525 7.86281 10155 ft 298 kts 306°
2026-04-21 22:02 50.79629 7.83570 9936 ft 296 kts 306°
2026-04-21 22:02 50.80757 7.80805 9726 ft 295 kts 306°
2026-04-21 22:02 50.81863 7.78084 9512 ft 294 kts 306°
2026-04-21 22:02 50.82963 7.75369 9301 ft 292 kts 306°
2026-04-21 22:03 50.84056 7.72670 9087 ft 291 kts 306°
2026-04-21 22:03 50.85132 7.70009 8885 ft 290 kts 306°
2026-04-21 22:03 50.86216 7.67327 8678 ft 289 kts 305°
2026-04-21 22:03 50.87297 7.64653 8458 ft 288 kts 306°
2026-04-21 22:04 50.88373 7.61993 8264 ft 286 kts 305°
2026-04-21 22:04 50.89446 7.59338 8045 ft 285 kts 305°
2026-04-21 22:04 50.90508 7.56699 7855 ft 284 kts 305°
2026-04-21 22:04 50.91566 7.54061 7640 ft 282 kts 304°
2026-04-21 22:05 50.92609 7.51453 7444 ft 279 kts 304°
2026-04-21 22:05 50.93644 7.48866 7232 ft 277 kts 304°
2026-04-21 22:05 50.94679 7.46285 7028 ft 276 kts 304°
2026-04-21 22:05 50.95706 7.43731 6813 ft 274 kts 304°
2026-04-21 22:06 50.96725 7.41191 6555 ft 272 kts 304°
2026-04-21 22:06 50.97739 7.38654 6348 ft 272 kts 304°
2026-04-21 22:06 50.98754 7.36106 6066 ft 272 kts 304°
2026-04-21 22:06 50.99769 7.33557 5856 ft 273 kts 304°
2026-04-21 22:07 51.00784 7.31006 5648 ft 274 kts 304°
2026-04-21 22:07 51.01801 7.28450 5440 ft 274 kts 304°
2026-04-21 22:07 51.02820 7.25894 5223 ft 274 kts 304°
2026-04-21 22:07 51.03841 7.23328 5028 ft 274 kts 303°
2026-04-21 22:08 51.04848 7.20801 4827 ft 275 kts 303°
2026-04-21 22:08 51.05884 7.18199 4612 ft 275 kts 303°
2026-04-21 22:08 51.06721 7.15528 4402 ft 273 kts 284°
2026-04-21 22:08 51.06841 7.12570 4137 ft 266 kts 266°
2026-04-21 22:09 51.06697 7.09649 3900 ft 256 kts 263°
2026-04-21 22:09 51.06543 7.06912 3695 ft 249 kts 263°
2026-04-21 22:09 51.06394 7.04213 3490 ft 241 kts 263°
2026-04-21 22:09 51.06255 7.01614 3300 ft 231 kts 263°
2026-04-21 22:10 51.05926 6.99200 3098 ft 217 kts 241°
2026-04-21 22:10 51.05198 6.97136 3015 ft 212 kts 234°
2026-04-21 22:10 51.04421 6.95167 3015 ft 209 kts 233°
2026-04-21 22:10 51.03395 6.93620 3013 ft 201 kts 199°
2026-04-21 22:11 51.02073 6.93330 3017 ft 190 kts 169°
2026-04-21 22:11 51.00773 6.93648 3015 ft 188 kts 164°
2026-04-21 22:11 50.99564 6.94318 3008 ft 182 kts 144°
2026-04-21 22:11 50.98716 6.95727 3006 ft 174 kts 111°
2026-04-21 22:12 50.98436 6.97557 2970 ft 169 kts 106°
2026-04-21 22:12 50.97698 6.98962 2840 ft 172 kts 142°
2026-04-21 22:12 50.96775 7.00123 2631 ft 168 kts 132°
2026-04-21 22:12 50.95933 7.01396 2428 ft 165 kts 133°
2026-04-21 22:13 50.95111 7.02613 2195 ft 159 kts 133°
2026-04-21 22:13 50.94309 7.03790 1963 ft 154 kts 132°
2026-04-21 22:13 50.93533 7.04921 1760 ft 146 kts 133°
2026-04-21 22:13 50.92813 7.05971 1563 ft 138 kts 133°
2026-04-21 22:14 50.92123 7.06975 1379 ft 132 kts 133°
2026-04-21 22:14 50.91446 7.07976 1167 ft 134 kts 134°
2026-04-21 22:14 50.90765 7.08985 992 ft 135 kts 137°
2026-04-21 22:14 50.90056 7.09974 767 ft 138 kts 133°
2026-04-21 22:15 50.89351 7.11009 626 ft 139 kts 135°
2026-04-21 22:15 50.88638 7.12050 424 ft 140 kts 134°
2026-04-21 22:15 50.87911 7.13093 273 ft 142 kts 135°
2026-04-21 22:15 50.87248 7.14060 245 ft 108 kts 136°
2026-04-21 22:16 50.86925 7.14526 259 ft 22 kts 149°
2026-04-21 22:16 50.86875 7.14490 260 ft 7 kts 264°
2026-04-21 22:16 50.86879 7.14400 260 ft 10 kts 278°
2026-04-21 22:16 50.86894 7.14266 257 ft 15 kts 280°
2026-04-21 22:17 50.86912 7.14088 255 ft 18 kts 278°
2026-04-21 22:17 50.86945 7.13898 248 ft 21 kts 306°
2026-04-21 22:17 50.87062 7.13719 241 ft 26 kts 318°
2026-04-21 22:17 50.87204 7.13515 239 ft 29 kts 317°
2026-04-21 22:18 50.87321 7.13347 232 ft 22 kts 318°
2026-04-21 22:18 50.87440 7.13175 232 ft 24 kts 317°
2026-04-21 22:18 50.87566 7.12992 232 ft 22 kts 317°
2026-04-21 22:18 50.87633 7.12895 232 ft 13 kts 317°
2026-04-21 22:19 50.87703 7.12794 232 ft 14 kts 317°
2026-04-21 22:19 50.87780 7.12683 232 ft 15 kts 318°
2026-04-21 22:19 50.87833 7.12621 232 ft 10 kts 335°
2026-04-21 22:19 50.87908 7.12619 232 ft 12 kts
2026-04-21 22:20 50.87990 7.12587 232 ft 13 kts 319°
2026-04-21 22:20 50.88038 7.12472 232 ft 12 kts 298°
2026-04-21 22:20 50.88078 7.12370 232 ft 10 kts 304°
2026-04-21 22:20 50.88114 7.12289 234 ft 8 kts 306°
2026-04-21 22:21 50.88135 7.12222 232 ft 5 kts 266°
2026-04-21 22:21 50.88119 7.12187 232 ft 3 kts 227°
2026-04-21 22:21 50.88104 7.12167 232 ft 3 kts 218°
2026-04-21 22:21 50.88090 7.12151 232 ft 1 kts 217°
2026-04-21 22:22 50.88083 7.12143 232 ft 2 kts 216°
2026-04-21 22:22 50.88082 7.12142 232 ft 0 kts 216°